Charles City, IA

5:36 PM CST on December 17, 2017 (GMT -0600)
Charles City Municipal

Weather History for KCCY - November, 2013

Change the Weather History Date:

Tuesday, November 26, 2013

  Actual Average Record
Temperature  
Mean Temperature 24 °F -  
Max Temperature 33 °F 37 °F 66 °F (1998)
Min Temperature 14 °F 22 °F -14 °F (1977)
Degree Days  
Heating Degree Days 42    
Moisture  
Dew Point 10 °F    
Average Humidity 57    
Maximum Humidity 75    
Minimum Humidity 40    
Precipitation  
Precipitation 0.00 in - - ()
Sea Level Pressure  
Sea Level Pressure 30.19 in    
Wind  
Wind Speed 18 mph (NW)    
Max Wind Speed 30 mph    
Max Gust Speed 38 mph    
Visibility 10 miles    
Events Rain    
Averages and records for this station are not official NWS values.
T = Trace of Precipitation, MM = Missing Value Source: NWS Daily Summary

Daily Weather History Graph

Daily Weather History Graph

Search for Another Location

Airport or City:

Trip Planner

Search our weather history database for the weather conditions in past years. The results will help you decide how hot, cold, wet, or windy it might be!

Date:

Astronomy

Nov. 26, 2013 Rise Set
Actual Time 7:16 AM CST 4:38 PM CST
Civil Twilight 6:45 AM CST 5:10 PM CST
Nautical Twilight 6:10 AM CST 5:45 PM CST
Astronomical Twilight 5:36 AM CST 6:19 PM CST
Moon 12:10 AM CST (11/26) 12:54 PM CST (11/26)
Length of Visible Light 10h 24m
Length of Day
9h 21m
Last Quarter, 41% of the Moon is Illuminated
Nov 26
Last Quarter
Dec 2
New
Dec 9
First Quarter
Dec 17
Full
Dec 25
Last Quarter

Hourly Weather History & Observations

Time (CST) Temp. Windchill Dew Point Humidity Pressure Visibility Wind Dir Wind Speed Gust Speed Precip Events Conditions
12:15 AM 33.8 °F 25.3 °F 23.0 °F 65% 30.08 in 10.0 mi WNW 11.5 mph - N/A   Overcast
12:35 AM 33.8 °F 24.3 °F 23.0 °F 65% 30.07 in 10.0 mi NW 13.8 mph - N/A   Overcast
12:55 AM 33.8 °F 24.3 °F 23.0 °F 65% 30.07 in 10.0 mi NW 13.8 mph - N/A   Overcast
1:15 AM 33.8 °F 25.3 °F 23.0 °F 65% 30.07 in 10.0 mi WNW 11.5 mph - N/A   Overcast
1:35 AM 33.8 °F 23.9 °F 21.2 °F 60% 30.07 in 10.0 mi WNW 15.0 mph - N/A   Overcast
1:55 AM 32.0 °F 20.8 °F 21.2 °F 64% 30.08 in 10.0 mi NW 17.3 mph - N/A   Overcast
2:15 AM 32.0 °F 20.5 °F 21.2 °F 64% 30.08 in 10.0 mi NW 18.4 mph - N/A   Overcast
2:35 AM 32.0 °F 21.6 °F 21.2 °F 64% 30.08 in 10.0 mi NW 15.0 mph 21.9 mph N/A   Overcast
2:55 AM 32.0 °F 20.1 °F 21.2 °F 64% 30.08 in 10.0 mi NW 19.6 mph - N/A   Overcast
3:15 AM 32.0 °F 21.2 °F 23.0 °F 69% 30.08 in 10.0 mi NW 16.1 mph - N/A   Overcast
3:35 AM 32.0 °F 20.8 °F 23.0 °F 69% 30.08 in 10.0 mi NNW 17.3 mph - N/A   Overcast
3:55 AM 30.2 °F 18.5 °F 23.0 °F 75% 30.09 in 10.0 mi NNW 17.3 mph - N/A   Overcast
4:15 AM 30.2 °F 18.5 °F 21.2 °F 69% 30.09 in 10.0 mi NNW 17.3 mph 24.2 mph N/A   Overcast
4:35 AM 30.2 °F 18.5 °F 21.2 °F 69% 30.09 in 10.0 mi NW 17.3 mph 27.6 mph N/A   Overcast
4:55 AM 28.4 °F 16.2 °F 19.4 °F 69% 30.09 in 10.0 mi NW 17.3 mph 26.5 mph N/A   Overcast
5:15 AM 28.4 °F 17.0 °F 19.4 °F 69% 30.09 in 10.0 mi NW 15.0 mph 21.9 mph N/A   Overcast
5:35 AM 28.4 °F 16.6 °F 19.4 °F 69% 30.09 in 10.0 mi NW 16.1 mph 21.9 mph N/A   Overcast
5:55 AM 28.4 °F 15.4 °F 17.6 °F 64% 30.10 in 10.0 mi NW 19.6 mph 28.8 mph N/A   Overcast
6:15 AM 26.6 °F 14.3 °F 17.6 °F 69% 30.10 in 10.0 mi NW 16.1 mph 25.3 mph N/A   Overcast
6:35 AM 26.6 °F 13.8 °F 17.6 °F 69% 30.12 in 10.0 mi WNW 17.3 mph - N/A   Overcast
6:55 AM 26.6 °F 13.1 °F 17.6 °F 69% 30.12 in 10.0 mi NW 19.6 mph 28.8 mph N/A   Overcast
7:15 AM 26.6 °F 10.6 °F 12.2 °F 55% 30.13 in 10.0 mi NNW 28.8 mph 35.7 mph N/A   Overcast
7:35 AM 24.8 °F 8.4 °F 12.2 °F 59% 30.14 in 10.0 mi NNW 27.6 mph 34.5 mph N/A   Overcast
7:55 AM 24.8 °F 10.0 °F 12.2 °F 59% 30.16 in 10.0 mi NNW 21.9 mph 31.1 mph N/A   Mostly Cloudy
8:15 AM 24.8 °F 10.0 °F 14.0 °F 64% 30.16 in 10.0 mi NW 21.9 mph 27.6 mph N/A   Mostly Cloudy
8:35 AM 24.8 °F 8.4 °F 14.0 °F 64% 30.17 in 10.0 mi NNW 27.6 mph 34.5 mph N/A Rain Light Freezing Rain
8:55 AM 24.8 °F 9.3 °F 6.8 °F 46% 30.18 in 10.0 mi NW 24.2 mph 34.5 mph N/A   Scattered Clouds
9:15 AM 23.0 °F 6.0 °F 5.0 °F 46% 30.19 in 10.0 mi NW 27.6 mph 34.5 mph N/A   Clear
9:35 AM 23.0 °F 7.6 °F 3.2 °F 43% 30.19 in 10.0 mi NW 21.9 mph 36.8 mph N/A   Clear
9:55 AM 23.0 °F 6.0 °F 3.2 °F 43% 30.19 in 10.0 mi NW 27.6 mph 34.5 mph N/A   Clear
10:15 AM 23.0 °F 6.3 °F 3.2 °F 43% 30.19 in 10.0 mi NW 26.5 mph 38.0 mph N/A   Clear
10:35 AM 23.0 °F 6.9 °F 3.2 °F 43% 30.20 in 10.0 mi NW 24.2 mph 36.8 mph N/A   Clear
10:55 AM 23.0 °F 5.4 °F 3.2 °F 43% 30.21 in 10.0 mi NNW 29.9 mph - N/A   Clear
11:15 AM 23.0 °F 5.4 °F 3.2 °F 43% 30.20 in 10.0 mi NNW 29.9 mph 36.8 mph N/A   Clear
11:35 AM 23.0 °F 6.0 °F 3.2 °F 43% 30.20 in 10.0 mi NNW 27.6 mph 34.5 mph N/A   Clear
11:55 AM 23.0 °F 5.4 °F 3.2 °F 43% 30.20 in 10.0 mi NW 29.9 mph 36.8 mph N/A   Clear
12:15 PM 24.8 °F 8.4 °F 3.2 °F 40% 30.20 in 10.0 mi NNW 27.6 mph 36.8 mph N/A   Clear
12:35 PM 24.8 °F 8.1 °F 3.2 °F 40% 30.19 in 10.0 mi NNW 28.8 mph 35.7 mph N/A   Clear
12:55 PM 24.8 °F 8.4 °F 5.0 °F 43% 30.18 in 10.0 mi NNW 27.6 mph 35.7 mph N/A   Partly Cloudy
1:15 PM 23.0 °F 6.6 °F 5.0 °F 46% 30.19 in 10.0 mi NNW 25.3 mph 34.5 mph N/A   Partly Cloudy
1:35 PM 24.8 °F 8.7 °F 6.8 °F 46% 30.19 in 10.0 mi NNW 26.5 mph 34.5 mph N/A   Mostly Cloudy
1:55 PM 23.0 °F 6.6 °F 6.8 °F 50% 30.19 in 10.0 mi NW 25.3 mph 31.1 mph N/A   Overcast
2:15 PM 23.0 °F 6.6 °F 6.8 °F 50% 30.20 in 10.0 mi NW 25.3 mph 32.2 mph N/A   Overcast
2:35 PM 23.0 °F 7.2 °F 6.8 °F 50% 30.20 in 10.0 mi NW 23.0 mph 31.1 mph N/A   Overcast
2:55 PM 23.0 °F 6.0 °F 6.8 °F 50% 30.20 in 10.0 mi NW 27.6 mph - N/A   Overcast
3:15 PM 23.0 °F 6.9 °F 6.8 °F 50% 30.21 in 10.0 mi NNW 24.2 mph 32.2 mph N/A   Overcast
3:35 PM 23.0 °F 6.9 °F 6.8 °F 50% 30.21 in 10.0 mi NNW 24.2 mph 29.9 mph N/A   Overcast
3:55 PM 21.2 °F 5.2 °F 5.0 °F 50% 30.23 in 10.0 mi NW 21.9 mph 34.5 mph N/A   Overcast
4:15 PM 21.2 °F 3.9 °F 5.0 °F 50% 30.23 in 10.0 mi NW 26.5 mph 34.5 mph N/A   Overcast
4:35 PM 21.2 °F 6.0 °F 5.0 °F 50% 30.24 in 10.0 mi NNW 19.6 mph 29.9 mph N/A   Mostly Cloudy
4:55 PM 21.2 °F 5.2 °F 5.0 °F 50% 30.23 in 10.0 mi NNW 21.9 mph 32.2 mph N/A   Scattered Clouds
5:15 PM 19.4 °F 4.5 °F 5.0 °F 54% 30.24 in 10.0 mi NNW 17.3 mph 25.3 mph N/A   Partly Cloudy
5:35 PM 19.4 °F 4.5 °F 5.0 °F 54% 30.25 in 10.0 mi NNW 17.3 mph 24.2 mph N/A   Clear
5:55 PM 19.4 °F 5.0 °F 5.0 °F 54% 30.26 in 10.0 mi NNW 16.1 mph - N/A   Clear
6:15 PM 19.4 °F 5.5 °F 5.0 °F 54% 30.26 in 10.0 mi NNW 15.0 mph 24.2 mph N/A   Clear
6:35 PM 19.4 °F 5.5 °F 5.0 °F 54% 30.27 in 10.0 mi NNW 15.0 mph 24.2 mph N/A   Clear
6:55 PM 17.6 °F 3.2 °F 5.0 °F 58% 30.27 in 10.0 mi NNW 15.0 mph - N/A   Clear
7:15 PM 17.6 °F 3.7 °F 5.0 °F 58% 30.28 in 10.0 mi NNW 13.8 mph - N/A   Clear
7:35 PM 17.6 °F 5.0 °F 5.0 °F 58% 30.28 in 10.0 mi NNW 11.5 mph 18.4 mph N/A   Clear
7:55 PM 17.6 °F 5.0 °F 5.0 °F 58% 30.29 in 10.0 mi NNW 11.5 mph - N/A   Clear
8:15 PM 15.8 °F 1.4 °F 5.0 °F 62% 30.29 in 10.0 mi NNW 13.8 mph - N/A   Clear
8:35 PM 15.8 °F 2.7 °F 5.0 °F 62% 30.29 in 10.0 mi NNW 11.5 mph - N/A   Clear
8:55 PM 15.8 °F 3.4 °F 5.0 °F 62% 30.29 in 10.0 mi NNW 10.4 mph - N/A   Clear
9:15 PM 15.8 °F 3.4 °F 5.0 °F 62% 30.29 in 10.0 mi NNW 10.4 mph - N/A   Clear
9:35 PM 15.8 °F 2.7 °F 5.0 °F 62% 30.29 in 10.0 mi NNW 11.5 mph - N/A   Clear
9:55 PM 15.8 °F 3.4 °F 5.0 °F 62% 30.30 in 10.0 mi North 10.4 mph - N/A   Clear
10:15 PM 14.0 °F 2.0 °F 5.0 °F 67% 30.30 in 10.0 mi NNW 9.2 mph - N/A   Clear
10:35 PM 14.0 °F 2.9 °F 5.0 °F 67% 30.30 in 10.0 mi NNW 8.1 mph - N/A   Clear
10:55 PM 14.0 °F 2.9 °F 5.0 °F 67% 30.31 in 10.0 mi NNW 8.1 mph - N/A   Clear
11:15 PM 14.0 °F 1.2 °F 5.0 °F 67% 30.31 in 10.0 mi NNW 10.4 mph - N/A   Clear
11:35 PM 14.0 °F 1.2 °F 5.0 °F 67% 30.31 in 10.0 mi NNW 10.4 mph - N/A   Clear
11:55 PM 14.0 °F 2.0 °F 5.0 °F 67% 30.31 in 10.0 mi NNW 9.2 mph - N/A   Clear